Location: Sternwarte Stuttgart
(48.7824°N, 9.1965°E)
Time: 03:03:00
(UTC+00:00)

Envisat - Visible Passes

Search period start: 18 November 2019 00:00
Search period end: 28 November 2019 00:00
Orbit: 764 x 766 km, 98.1° (Epoch: 17 November)

Date Brightness Start Highest point End Pass type
(mag) Time Alt. Az. Time Alt. Az. Time Alt. Az.
18 Nov 6.0 04:59:07 10° NE 05:02:10 16° E 05:05:11 10° SE visible
18 Nov 3.7 16:16:59 10° SE 16:21:25 31° ENE 16:25:51 10° N visible
18 Nov 4.3 17:55:32 10° SSW 18:00:19 41° W 18:05:08 10° NNW visible
19 Nov 4.1 06:00:01 10° NNE 06:04:59 52° E 06:09:56 10° S visible
19 Nov 3.0 17:18:20 10° SSE 17:23:26 84° WSW 17:28:34 10° NNW visible
19 Nov 6.1 19:01:12 10° WSW 19:03:15 12° W 19:05:19 10° WNW visible
20 Nov 5.5 05:23:44 10° NE 05:27:58 26° E 05:32:10 10° SSE visible
20 Nov 3.2 16:41:52 10° SE 16:46:45 49° ENE 16:51:39 10° N visible
20 Nov 5.2 18:21:51 10° SSW 18:26:01 25° W 18:30:13 10° NW visible
21 Nov 6.2 04:48:35 10° ENE 04:50:44 13° E 04:52:52 10° ESE visible
21 Nov 3.9 16:06:05 10° ESE 16:10:14 26° ENE 16:14:24 10° N visible
21 Nov 3.9 17:44:04 10° S 17:48:59 51° W 17:53:58 10° NNW visible
22 Nov 4.5 05:48:49 10° NNE 05:53:39 42° E 05:58:27 10° SSE visible
22 Nov 2.9 17:07:05 10° SSE 17:12:10 80° ENE 17:17:16 10° NNW visible
22 Nov 5.9 18:48:51 10° WSW 18:51:49 15° W 18:54:48 10° NW visible
23 Nov 5.8 05:12:45 10° NE 05:16:35 21° E 05:20:22 10° SE visible
23 Nov 3.4 16:30:49 10° SE 16:35:31 40° ENE 16:40:16 10° N visible
23 Nov 4.8 18:10:10 10° SSW 18:14:39 31° W 18:19:10 10° NNW visible
24 Nov 3.4 17:32:39 10° S 17:37:41 63° W 17:42:45 10° NNW visible
25 Nov 4.9 05:37:41 10° NNE 05:42:19 34° E 05:46:54 10° SSE visible
25 Nov 2.9 16:55:53 10° SSE 17:00:54 65° ENE 17:05:58 10° N visible
25 Nov 5.6 18:36:50 10° SW 18:40:25 19° W 18:44:00 10° NW visible
26 Nov 6.0 05:01:52 10° NE 05:05:10 17° E 05:08:26 10° SE visible
26 Nov 3.6 16:19:49 10° SE 16:24:20 33° ENE 16:28:52 10° N visible
26 Nov 4.4 17:58:35 10° SSW 18:03:18 38° W 18:08:02 10° NNW visible
27 Nov 3.9 06:02:55 10° NNE 06:07:57 56° E 06:12:56 10° S visible
27 Nov 3.1 17:21:18 10° S 17:26:23 78° WSW 17:31:30 10° NNW visible
27 Nov 6.2 19:04:45 10° WSW 19:06:16 11° W 19:07:47 10° WNW visible
